Simultaneous Nadir Overpasses (SNOs) Predictions

Prediction of SNOs between NOAA-19 and NPP Satellite Orbit:

Table of predicted SNOs for the next 14.0 days since TLE Epoch: 9/15/2017
Index Date (NOAA-19) Time (NOAA-19) Lat,Lon (NOAA-19) SZA (NOAA-19 ) Date (NPP) Time (NPP) Lat,Lon (NPP) SZA (NPP ) Distance(km) Time Diff (sec)
1 09/23/2017 13:21:58 80.68, -72.10 84.23 09/23/2017 13:23:04 80.70, -68.47 83.78 65.39 66
2 09/23/2017 14:12:57 -80.77, 97.82 96.02 09/23/2017 14:13:52 -80.77, 97.73 96.04 1.64 55
3 09/23/2017 15:03:52 80.77, -94.92 84.00 09/23/2017 15:04:37 80.76, -94.90 83.97 0.86 45
4 09/23/2017 15:54:58 -80.78, 72.48 96.01 09/23/2017 15:55:22 -80.77, 72.33 96.01 2.82 24
5 09/23/2017 16:45:53 80.78,-120.25 84.01 09/23/2017 16:46:07 80.77,-120.30 84.00 1.54 14
6 09/23/2017 17:37:00 -80.77, 46.79 95.97 09/23/2017 17:36:52 -80.77, 46.94 95.98 2.70 8
7 09/23/2017 18:27:55 80.77,-145.94 84.05 09/23/2017 18:27:38 80.79,-146.04 84.08 2.44 17
8 09/23/2017 19:19:01 -80.78, 21.45 95.96 09/23/2017 19:18:22 -80.77, 21.54 95.95 1.71 39
9 09/23/2017 20:09:56 80.78,-171.28 84.06 09/23/2017 20:09:08 80.79,-171.44 84.11 3.12 48




NCC Satellite Simultaneous Nadir Overpasses (SNOs) Prediction Service
